Location: Gorze? G�rny
(49.8500°N, 19.5000°E)
Time: 05:02:23
(UTC+00:00)

CZ-4C R/B - Pass Details

Date: 13 May 2021
Orbit: 609 x 1393 km, 63.4° (Epoch: 20 June)

Event Time Altitude Azimuth Distance (km) Brightness Sun altitude
Rises 19:47:18 0° 315° (NW) 3,828 7.8 -11.8°
Reaches altitude 10° 19:49:51 10° 311° (NW) 2,978 6.5 -12.1°
Maximum altitude 19:56:49 51° 238° (WSW) 1,528 3.6 -12.8°
Enters shadow 20:03:58 13° 168° (SSE) 3,130 4.6 -13.5°
